This demonstration page uses our WeatherBlox Daily Observations layout. Learn more.

Left ArrowRight Arrow

47.50024, -111.30081

Hourly Observations for April 29, 2020

Temp ( °F °C ) Dew Point ( °F °C ) Humidity (%) Winds ( mph kmh ) Pressure ( in mb ) Visibility ( mi km ) Precip ( " mm )
12:53 am 00:53 Clear 51 10.6 25 -3.9 36 36 SW 12 19 30.13 1020 10 16 0.00 0.00
1:53 am 01:53 Clear 53 11.7 25 -3.9 34 34 SW 14 22 30.11 1020 10 16 0.00 0.00
2:53 am 02:53 Clear 52 11.1 25 -3.9 35 35 WSW 12 19 30.11 1020 10 16 0.00 0.00
3:53 am 03:53 Clear 54 12.2 22 -5.6 29 29 SW 12 19 30.09 1019 10 16 0.00 0.00
4:53 am 04:53 Clear 50 10 23 -5 35 35 SW 9 15 30.12 1020 10 16 0.00 0.00
5:53 am 05:53 Clear 49 9.4 23 -5 36 36 SW 12 19 30.11 1020 10 16 0.00 0.00
6:53 am 06:53 Mostly Sunny 52 11.1 24 -4.4 34 34 SSW 13 20 30.10 1019 10 16 0.00 0.00
7:53 am 07:53 Sunny 56 13.3 28 -2.2 34 34 SSW 7 11 30.11 1020 10 16 0.00 0.00
8:53 am 08:53 Sunny 63 17.2 27 -2.8 26 26 SW 13 20 30.11 1020 10 16 0.00 0.00
9:53 am 09:53 Sunny 66 18.9 30 -1.1 26 26 SSW 10 17 30.09 1019 10 16 0.00 0.00
10:53 am 10:53 Sunny 69 20.6 31 -0.6 24 24 S 9 15 30.07 1018 10 16 0.00 0.00
11:53 am 11:53 Sunny 71 21.7 32 0 24 24 SSW 10 17 30.04 1017 10 16 0.00 0.00
12:53 pm 12:53 Sunny 75 23.9 34 1.1 22 22 WSW 10 17 29.98 1015 10 16 0.00 0.00
1:53 pm 13:53 Sunny 76 24.4 34 1.1 22 22 Calm 29.93 1014 10 16 0.00 0.00
2:53 pm 14:53 Sunny 77 25 35 1.7 22 22 SE 3 6 29.91 1013 10 16 0.00 0.00
3:53 pm 15:53 Mostly Sunny 79 26.1 33 0.6 19 19 SSE 13 20 29.85 1011 10 16 0.00 0.00
4:53 pm 16:53 Sunny 77 25 33 0.6 20 20 SSW 9 15 29.84 1010 10 16 0.00 0.00
5:53 pm 17:53 Sunny 79 26.1 32 0 18 18 S 12 19 29.82 1010 10 16 0.00 0.00
6:53 pm 18:53 Sunny 78 25.6 33 0.6 19 19 SSW 13 20 29.80 1009 10 16 0.00 0.00
7:53 pm 19:53 Sunny 70 21.1 38 3.3 31 31 Calm 29.78 1008 10 16 0.00 0.00
8:53 pm 20:53 Mostly Cloudy 68 20 37 2.8 32 32 SSW 5 7 29.77 1008 10 16 0.00 0.00
9:53 pm 21:53 Mostly Clear 67 19.4 36 2.2 32 32 NW 21 33 29.81 1010 10 16 0.00 0.00
10:53 pm 22:53 Cloudy 63 17.2 39 3.9 41 41 NNW 8 13 29.81 1010 10 16 0.00 0.00
11:53 pm 23:53 Mostly Cloudy 61 16.1 39 3.9 44 44 NW 5 7 29.82 1010 10 16 0.00 0.00

Powered by AerisWeather